EW7067 Weather Reports


Display with metric or nautical units.
time (UTC)temp
F
wind
direction
speed
MPH
gust
MPH
rain 1hr
in
rain 24hr
in
rain mn
in
humidity
%
barometer
mb
20260510082111 53 180 0.0 0.0 0.00 0.00 0.00 91 968.7
20260510081109 55 180 0.0 0.0 0.00 0.00 0.00 90 968.6
20260510080607 55 180 0.0 2.0 0.00 0.00 0.00 90 968.5
20260510080105 54 180 0.0 2.0 0.00 0.00 0.00 91 968.4
20260510075100 54 180 0.0 0.0 0.00 0.00 0.00 91 968.2
20260510074557 55 180 0.0 0.0 0.00 0.00 0.00 91 968.2
20260510074050 55 180 0.0 0.0 0.00 0.00 0.00 91 968.3
20260510073545 55 180 0.0 0.0 0.00 0.00 0.00 91 968.2
20260510072533 55 180 0.0 0.0 0.00 0.00 0.00 91 968.2
20260510072027 55 180 0.0 0.0 0.00 0.00 0.00 91 968.2
20260510071015 56 180 0.0 0.0 0.00 0.00 0.00 91 968.1
20260510070509 56 180 0.0 0.0 0.00 0.00 0.00 91 968.2
20260510070004 56 180 0.0 0.0 0.00 0.00 0.00 91 968.1
20260510065457 56 180 0.0 0.0 0.00 0.00 0.00 91 968.1
20260510064444 56 180 0.0 0.0 0.00 0.00 0.00 91 968.1
20260510063433 56 180 0.0 0.0 0.00 0.00 0.00 91 968.2
20260510062927 56 180 0.0 0.0 0.00 0.00 0.00 91 968.2
20260510062421 56 180 0.0 0.0 0.00 0.00 0.00 91 968.1
20260510061914 56 180 0.0 0.0 0.00 0.00 0.00 91 968.1
20260510061408 57 180 0.0 0.0 0.00 0.00 0.00 91 968.2
20260510060903 57 180 0.0 0.0 0.00 0.00 0.00 92 968.4
20260510060357 57 180 0.0 0.0 0.00 0.00 0.00 92 968.4
20260510055851 57 180 0.0 0.0 0.00 0.00 0.00 91 968.4
20260510055345 57 180 0.0 0.0 0.00 0.00 0.00 91 968.4
20260510054839 57 180 0.0 0.0 0.00 0.00 0.00 92 968.5
20260510054333 57 180 0.0 0.0 0.00 0.00 0.00 92 968.5
20260510053828 57 180 0.0 0.0 0.00 0.00 0.00 92 968.4
20260510053320 57 180 0.0 0.0 0.00 0.00 0.00 92 968.4
20260510052814 58 180 0.0 0.0 0.00 0.00 0.00 92 968.4
20260510050751 58 181 0.0 0.0 0.00 0.00 0.00 92 968.5
20260510050245 58 181 0.0 0.0 0.00 0.00 0.00 92 968.5
20260510045739 58 181 0.0 0.0 0.00 0.00 0.00 92 968.6
20260510044728 59 181 0.0 0.0 0.00 0.00 0.00 92 968.6
20260510044221 59 181 0.0 0.0 0.00 0.00 0.00 92 968.5
20260510043714 59 181 0.0 0.0 0.00 0.00 0.00 92 968.4
20260510042703 59 181 0.0 0.0 0.00 0.00 0.00 93 968.5
20260510041651 59 181 0.0 0.0 0.00 0.00 0.00 93 968.6
20260510041145 59 181 0.0 0.0 0.00 0.00 0.00 93 968.5
20260510040638 59 181 0.0 0.0 0.00 0.00 0.00 93 968.4
20260510040133 60 181 0.0 0.0 0.00 0.00 0.00 93 968.5
20260510035121 60 181 0.0 0.0 0.00 0.00 0.00 93 968.5
20260510034615 60 181 0.0 0.0 0.00 0.00 0.00 93 968.4
20260510034108 60 181 0.0 0.0 0.00 0.00 0.00 93 968.4
20260510033602 60 181 0.0 0.0 0.00 0.00 0.00 93 968.4
20260510033056 60 181 0.0 0.0 0.00 0.00 0.00 93 968.5
20260510032550 61 181 0.0 0.0 0.00 0.00 0.00 93 968.4
20260510032045 61 181 0.0 0.0 0.00 0.00 0.00 93 968.6
20260510031538 61 181 0.0 0.0 0.00 0.00 0.00 93 968.6
20260510031032 61 181 0.0 0.0 0.00 0.00 0.00 93 968.6
20260510030526 61 181 0.0 0.0 0.00 0.00 0.00 93 968.5
20260510030021 62 181 0.0 0.0 0.00 0.00 0.00 93 968.5
20260510025515 62 181 0.0 0.0 0.00 0.00 0.00 92 968.6
20260510023957 63 181 0.0 0.0 0.00 0.00 0.00 92 968.4
20260510023451 63 181 0.0 0.0 0.00 0.00 0.00 91 968.4
20260510022946 63 181 0.0 0.0 0.00 0.00 0.00 91 968.3
20260510022438 64 181 0.0 0.0 0.00 0.00 0.00 91 968.3
20260510021933 64 181 0.0 0.0 0.00 0.00 0.00 90 968.2
20260510021427 64 181 0.0 0.0 0.00 0.00 0.00 90 968.2
20260510020921 65 181 0.0 0.0 0.00 0.00 0.00 89 968.1
20260510020414 65 181 0.0 0.0 0.00 0.00 0.00 89 968.2
20260510015908 65 181 0.0 0.0 0.00 0.00 0.00 88 968.0
20260510015403 65 181 0.0 0.0 0.00 0.00 0.00 88 967.8
20260510014857 66 181 0.0 0.0 0.00 0.00 0.00 87 967.8
20260510014351 66 181 0.0 0.0 0.00 0.00 0.00 87 967.7
20260510013844 66 181 0.0 2.0 0.00 0.00 0.00 86 967.6
20260510013339 66 181 0.0 2.0 0.00 0.00 0.00 86 967.6
20260510012832 67 181 0.0 3.0 0.00 0.00 0.00 86 967.6
20260510011821 67 182 0.0 3.0 0.00 0.00 0.00 85 967.5
20260510011315 67 182 1.0 4.0 0.00 0.00 0.00 84 967.4
20260510004745 68 205 1.0 5.0 0.00 0.00 0.00 84 966.9
20260510004239 68 154 0.0 4.0 0.00 0.00 0.00 84 966.8
20260510003733 68 183 0.0 0.0 0.00 0.00 0.00 84 966.7
20260510003227 68 183 0.0 0.0 0.00 0.00 0.00 83 966.6
20260510002721 68 183 0.0 0.0 0.00 0.00 0.00 83 966.5
20260510002215 69 183 0.0 0.0 0.00 0.00 0.00 82 966.5
20260510001708 69 183 0.0 3.0 0.00 0.00 0.00 81 966.4
20260510001203 69 183 1.0 3.0 0.00 0.00 0.00 81 966.3
20260510000658 69 164 0.0 4.0 0.00 0.00 0.00 80 966.3
20260509235651 69 189 1.0 7.0 0.00 0.00 0.00 80 966.2
20260509235151 70 230 1.0 7.0 0.00 0.00 0.00 79 966.0
20260509234149 70 206 1.0 6.0 0.00 0.00 0.00 78 966.0
20260509233649 70 157 1.0 6.0 0.00 0.00 0.00 78 966.0
20260509233149 71 231 1.0 6.0 0.00 0.00 0.00 78 966.1
20260509232647 71 190 1.0 3.0 0.00 0.00 0.00 77 966.1
20260509231643 71 111 0.0 3.0 0.00 0.00 0.00 77 966.2
20260509230639 71 341 0.0 2.0 0.00 0.00 0.00 76 966.0
20260509230136 71 341 1.0 6.0 0.00 0.00 0.00 76 965.8
20260509225635 71 342 2.0 14.0 0.00 0.00 0.00 76 965.8
20260509225135 71 183 3.0 14.0 0.00 0.00 0.00 76 965.8
20260509224635 71 174 2.0 9.0 0.00 0.00 0.00 75 965.7
20260509224133 72 265 1.0 7.0 0.00 0.00 0.00 75 965.6
20260509223633 72 213 2.0 9.0 0.00 0.00 0.00 74 965.6
20260509223134 72 198 3.0 9.0 0.00 0.00 0.00 73 965.6
20260509222635 73 207 1.0 9.0 0.00 0.00 0.00 73 965.4
20260509222129 73 221 0.0 3.0 0.00 0.00 0.00 71 965.4
20260509221632 73 223 1.0 5.0 0.00 0.00 0.00 72 965.3
20260509221129 73 223 1.0 7.0 0.00 0.00 0.00 72 965.3
20260509220629 73 242 2.0 7.0 0.00 0.00 0.00 72 965.2
20260509220130 73 296 2.0 6.0 0.00 0.00 0.00 72 965.2
20260509215627 73 232 2.0 6.0 0.00 0.00 0.00 71 965.2
20260509215127 73 167 2.0 8.0 0.00 0.00 0.00 71 965.3
20260509214626 74 180 2.0 9.0 0.00 0.00 0.00 71 965.3
20260509214128 74 229 1.0 9.0 0.00 0.00 0.00 70 965.2
20260509213625 74 267 1.0 6.0 0.00 0.00 0.00 70 965.2
20260509213122 73 269 2.0 12.0 0.00 0.00 0.00 70 965.2
20260509212623 73 165 4.0 12.0 0.00 0.00 0.00 71 965.2
20260509212122 73 124 4.0 10.0 0.00 0.00 0.00 71 965.1
20260509211621 73 221 5.0 12.0 0.00 0.00 0.00 71 965.2
20260509210113 73 182 5.0 14.0 0.00 0.00 0.00 70 965.0
20260509205612 74 178 3.0 10.0 0.00 0.00 0.00 70 965.1
20260509205113 74 170 3.0 12.0 0.00 0.00 0.00 68 965.0
20260509204612 73 225 5.0 12.0 0.00 0.00 0.00 67 965.0
20260509204114 74 142 4.0 12.0 0.00 0.00 0.00 66 964.9
20260509203613 75 170 2.0 9.0 0.00 0.00 0.00 66 964.9
20260509203113 75 133 3.0 12.0 0.00 0.00 0.00 65 964.8
20260509202612 75 155 5.0 12.0 0.00 0.00 0.00 63 964.8
20260509202113 75 240 4.0 10.0 0.00 0.00 0.00 65 964.8
20260509201109 75 127 2.0 10.0 0.00 0.00 0.00 68 965.0
20260509200109 74 177 5.0 11.0 0.00 0.00 0.00 67 965.2
20260509195608 74 140 5.0 12.0 0.00 0.00 0.00 68 965.2
20260509195109 73 131 5.0 12.0 0.00 0.00 0.00 69 965.1
20260509194610 73 124 4.0 12.0 0.00 0.00 0.00 69 965.0
20260509194109 73 162 3.0 12.0 0.00 0.00 0.00 69 965.0
20260509193610 73 153 4.0 12.0 0.00 0.00 0.00 66 965.1
20260509193110 74 302 6.0 15.0 0.00 0.00 0.00 66 965.2
20260509192609 74 167 6.0 15.0 0.00 0.00 0.00 66 965.3
20260509192109 74 159 4.0 12.0 0.00 0.00 0.00 65 965.3
20260509191608 74 178 2.0 8.0 0.00 0.00 0.00 68 965.4
20260509191109 74 150 2.0 10.0 0.00 0.00 0.00 64 965.5
20260509190609 74 182 3.0 10.0 0.00 0.00 0.00 65 965.6
20260509190109 74 215 4.0 11.0 0.00 0.00 0.00 65 965.6
20260509185610 74 171 4.0 13.0 0.00 0.00 0.00 66 965.6
20260509185111 74 242 2.0 13.0 0.00 0.00 0.00 67 965.6
20260509184610 73 185 3.0 14.0 0.00 0.00 0.00 70 965.5
20260509184110 72 148 5.0 14.0 0.00 0.00 0.00 71 965.5
20260509183609 72 208 4.0 12.0 0.00 0.00 0.00 71 965.6
20260509183109 72 111 4.0 11.0 0.00 0.00 0.00 73 965.6
20260509182608 71 171 4.0 12.0 0.00 0.00 0.00 73 965.7
20260509182108 71 236 4.0 12.0 0.00 0.00 0.00 70 965.7
20260509181106 71 252 4.0 14.0 0.00 0.00 0.00 73 965.8
20260509180606 71 157 5.0 12.0 0.00 0.00 0.00 71 965.9
20260509180105 71 219 3.0 11.0 0.00 0.00 0.00 71 965.9
20260509175606 71 217 3.0 12.0 0.00 0.00 0.00 75 966.1
20260509174603 70 177 4.0 12.0 0.00 0.00 0.00 72 966.3
20260509174103 71 246 4.0 12.0 0.00 0.00 0.00 73 966.4
20260509173602 71 232 4.0 12.0 0.00 0.00 0.00 72 966.4
20260509172558 70 248 2.0 10.0 0.00 0.00 0.00 75 966.4
20260509172059 70 282 3.0 12.0 0.00 0.00 0.00 74 966.5
20260509171558 69 331 4.0 12.0 0.00 0.00 0.00 76 966.4
20260509171059 69 177 4.0 9.0 0.00 0.00 0.00 75 966.5
20260509170556 69 186 2.0 9.0 0.00 0.00 0.00 74 966.6
20260509170056 69 217 2.0 7.0 0.00 0.00 0.00 74 966.7
20260509165558 69 168 2.0 8.0 0.00 0.00 0.00 76 966.7
20260509165055 69 159 3.0 10.0 0.00 0.00 0.00 75 966.8
20260509164554 69 182 3.0 10.0 0.00 0.00 0.00 74 966.7
20260509164053 68 252 3.0 14.0 0.00 0.00 0.00 76 966.9
20260509163553 68 275 3.0 14.0 0.00 0.00 0.00 76 967.1
20260509163050 68 239 3.0 11.0 0.00 0.00 0.00 75 967.2
20260509162550 68 175 4.0 12.0 0.00 0.00 0.00 75 967.2
20260509162051 68 233 4.0 12.0 0.00 0.00 0.00 75 967.3
20260509161045 68 165 4.0 11.0 0.00 0.00 0.00 75 967.4
20260509160539 67 235 4.0 10.0 0.00 0.00 0.00 76 967.6
20260509160033 67 162 3.0 11.0 0.00 0.00 0.00 76 967.6
20260509155527 67 174 2.0 11.0 0.00 0.00 0.00 76 967.6
20260509155022 67 186 3.0 12.0 0.00 0.00 0.00 77 967.6
20260509154515 67 172 5.0 14.0 0.00 0.00 0.00 76 967.6
20260509154009 67 180 6.0 14.0 0.00 0.00 0.00 77 967.5
20260509153503 66 156 4.0 14.0 0.00 0.00 0.00 78 967.4
20260509152957 66 157 3.0 10.0 0.00 0.00 0.00 79 967.4
20260509152451 65 198 2.0 10.0 0.00 0.00 0.00 79 967.5
20260509151946 65 317 1.0 6.0 0.00 0.00 0.00 80 967.6
20260509151440 65 228 1.0 8.0 0.00 0.00 0.00 80 967.6
20260509150933 65 240 1.0 8.0 0.00 0.00 0.00 80 967.5
20260509150427 65 177 1.0 8.0 0.00 0.00 0.00 80 967.5
20260509145922 65 235 1.0 7.0 0.00 0.00 0.00 82 967.5
20260509145415 65 169 2.0 10.0 0.00 0.00 0.00 81 967.6
20260509144908 65 183 2.0 10.0 0.00 0.00 0.00 81 967.7
20260509144404 64 158 2.0 7.0 0.00 0.00 0.00 82 967.7
20260509143857 64 234 1.0 9.0 0.00 0.00 0.00 84 967.6
20260509143352 64 164 1.0 9.0 0.00 0.00 0.00 84 967.6
20260509141833 62 193 3.0 9.0 0.00 0.00 0.00 85 967.7
20260509141329 62 163 2.0 9.0 0.00 0.00 0.00 86 967.7
20260509140821 61 174 1.0 7.0 0.00 0.00 0.00 87 967.7
20260509140315 61 163 2.0 9.0 0.00 0.00 0.00 86 967.6
20260509135809 61 140 2.0 9.0 0.00 0.00 0.00 87 967.6
20260509135306 60 186 1.0 9.0 0.00 0.00 0.00 89 967.4
20260509134757 60 259 1.0 6.0 0.00 0.00 0.00 89 967.6
20260509134251 59 225 2.0 7.0 0.00 0.00 0.00 88 967.6
20260509133744 59 206 2.0 7.0 0.00 0.00 0.00 89 967.7
20260509133239 59 234 2.0 6.0 0.00 0.00 0.00 90 967.8
20260509132227 58 180 2.0 11.0 0.00 0.00 0.00 92 967.8
20260509131722 58 200 1.0 6.0 0.00 0.00 0.00 93 967.9
20260509131215 57 242 1.0 4.0 0.00 0.00 0.00 93 967.9
20260509125657 55 237 0.0 0.0 0.00 0.00 0.00 89 968.4
20260509125151 55 237 0.0 0.0 0.00 0.00 0.00 89 968.5
20260509124645 55 237 0.0 0.0 0.00 0.00 0.00 89 968.7
20260509124140 54 237 0.0 0.0 0.00 0.00 0.00 89 968.7
20260509123638 53 237 0.0 0.0 0.00 0.00 0.00 89 968.8
20260509123136 52 237 0.0 0.0 0.00 0.00 0.00 89 968.8
20260509122634 51 237 0.0 0.0 0.00 0.00 0.00 89 968.9
20260509122134 51 237 0.0 0.0 0.00 0.00 0.00 90 968.8
20260509121630 50 237 0.0 0.0 0.00 0.00 0.00 90 968.7
20260509121128 49 237 0.0 0.0 0.00 0.00 0.00 90 968.6
20260509120625 49 237 0.0 0.0 0.00 0.00 0.00 90 968.5
20260509120125 48 237 0.0 0.0 0.00 0.00 0.00 90 968.6
20260509115622 48 237 0.0 0.0 0.00 0.00 0.00 90 968.6
20260509115121 48 237 0.0 0.0 0.00 0.00 0.00 90 968.6
20260509114115 47 237 0.0 0.0 0.00 0.00 0.00 91 968.4
20260509113115 46 237 0.0 0.0 0.00 0.00 0.00 91 968.1
20260509112615 46 237 0.0 0.0 0.00 0.00 0.00 91 968.1
20260509112112 46 237 0.0 0.0 0.00 0.00 0.00 91 968.3
20260509111614 45 237 0.0 0.0 0.00 0.00 0.00 91 968.2
20260509111112 45 237 0.0 0.0 0.00 0.00 0.00 91 968.1
20260509110610 45 237 0.0 0.0 0.00 0.00 0.00 91 968.1
20260509110109 45 237 0.0 0.0 0.00 0.00 0.00 91 968.1
20260509104100 44 237 0.0 0.0 0.00 0.00 0.00 92 968.2
20260509103058 44 237 0.0 0.0 0.00 0.00 0.00 92 968.0
20260509102558 44 237 0.0 0.0 0.00 0.00 0.00 92 968.0
20260509102055 44 237 0.0 0.0 0.00 0.00 0.00 92 967.8
20260509101054 44 237 0.0 2.0 0.00 0.00 0.00 92 967.8
20260509100551 44 237 0.0 2.0 0.00 0.00 0.00 92 967.7
20260509100052 45 237 0.0 1.0 0.00 0.00 0.00 92 967.6
20260509095050 45 237 0.0 0.0 0.00 0.00 0.00 92 967.6
20260509094551 45 237 0.0 0.0 0.00 0.00 0.00 92 967.6
20260509094050 45 237 0.0 0.0 0.00 0.00 0.00 92 967.5
20260509093547 45 237 0.0 0.0 0.00 0.00 0.00 92 967.6
20260509093048 45 237 0.0 0.0 0.00 0.00 0.00 92 967.5
20260509092548 45 237 0.0 0.0 0.00 0.00 0.00 92 967.7
20260509091548 45 237 0.0 0.0 0.00 0.00 0.00 92 967.7
20260509091047 45 237 0.0 0.0 0.00 0.00 0.00 92 967.8
20260509090547 45 237 0.0 0.0 0.00 0.00 0.00 92 967.6
20260509090047 45 237 0.0 0.0 0.00 0.00 0.00 92 967.7
20260509085548 46 237 0.0 0.0 0.00 0.00 0.00 92 967.7
20260509085043 46 237 0.0 0.0 0.00 0.00 0.00 92 967.5
20260509084544 46 237 0.0 0.0 0.00 0.00 0.00 92 967.5
20260509084043 46 237 0.0 0.0 0.00 0.00 0.00 92 967.6
20260509083543 46 237 0.0 0.0 0.00 0.00 0.00 92 967.7
20260509082545 47 237 0.0 0.0 0.00 0.00 0.00 92 968.0